Location: ??????????
(31.2156°N, 29.9553°E)
Time: 04:02:22
(UTC+00:00)

Cosmos 968 Rocket - Pass Details

Date: 03 March 2021
Orbit: 740 x 771 km, 74.0° (Epoch: 14 April)

Event Time Altitude Azimuth Distance (km) Brightness Sun altitude
Rises 16:12:31 0° 355° (N) 3,245 6.7 -3.5°
Reaches altitude 10° 16:15:10 10° 6° (N) 2,316 5.9 -4.1°
Maximum altitude 16:19:48 31° 68° (ENE) 1,333 4.3 -5.0°
Drops below altitude 10° 16:24:25 10° 130° (SE) 2,305 5.6 -6.0°
Sets 16:27:02 0° 140° (SE) 3,226 6.4 -6.6°
